Skip Page Navigation
NASA JPL Caltech
NASA Logo - Jet Propulsion Laboratory + View the NASA Portal
+ Center for Near-Earth Object Studies
JPL Home Earth Solar System Stars & Galaxies Technology
JPL Solar System Dynamics
BODIES ORBITS EPHEMERIDES TOOLS PHYSICAL DATA DISCOVERY FAQ SITE MAP
JPL Small-Body Database Browser
Search: [ help ]  
266878 (2009 VN64)
Classification: Main-belt Asteroid          SPK-ID: 2266878
Ephemeris | Orbit Diagram | Orbital Elements | Mission Design | Physical Parameters | Discovery Circumstances | Close-Approach Data ]

[ show orbit diagram ]
Orbital Elements at Epoch 2459000.5 (2020-May-31.0) TDB
Reference: JPL 11 (heliocentric ecliptic J2000)
 Element Value Uncertainty (1-sigma)   Units 
e .08153941709320872 7.8673e-08  
a 2.784409801306283 3.0012e-08 au
q 2.557370649159151 2.16e-07 au
i 4.242110018950008 7.8808e-06 deg
node 6.123414564580125 0.00013196 deg
peri 23.28402704843021 0.00015286 deg
M 101.5386130411437 7.3073e-05 deg
tp 2458521.840278536720
(2019-Feb-07.34027854)
0.00034386 TDB
period 1697.063753046905
4.65
2.7438e-05
7.512e-08
d
yr
n .2121310995851846 3.4297e-09 deg/d
Q 3.011448953453414 3.2459e-08 au
  Orbit Determination Parameters
   # obs. used (total)      133  
   data-arc span      8870 days (24.28 yr)  
   first obs. used      1995-10-22  
   last obs. used      2020-02-03  
   planetary ephem.      DE431  
   SB-pert. ephem.      SB431-N16  
   condition code      0  
   norm. resid. RMS      .59671  
   source      ORB  
   producer      Otto Matic  
   solution date      2020-Feb-25 12:50:27  

Additional Information
 Earth MOID = 1.56265 au 
 Jupiter MOID = 2.35964 au 
 T_jup = 3.323 
[ show covariance matrix ]

Ephemeris | Orbit Diagram | Orbital Elements | Mission Design | Physical Parameters | Discovery Circumstances | Close-Approach Data ]

Physical Parameter Table
Parameter Symbol Value Units Sigma Reference Notes
absolute magnitude H 17.1   n/a MPO454983  
diameter diameter 2.710 km 1.201 urn:nasa:pds:neowise_diameters_albedos::2.0[mainbelt] (http://adsabs.harvard.edu/abs/2011ApJ...741...68M)  
geometric albedo albedo 0.035   0.023 urn:nasa:pds:neowise_diameters_albedos::2.0[mainbelt] (http://adsabs.harvard.edu/abs/2011ApJ...741...68M)  

266878 (2009 VN64)          Discovered 2009-Nov-09 by Spacewatch at Kitt Peak
Reference: 20110218/Numbers.arcLast Updated: 2011-02-22

[ show close-approach data ]
Alternate Designations
 2009 VN64 = 2004 RQ133 
Ephemeris | Orbit Diagram | Orbital Elements | Mission Design | Physical Parameters | Discovery Circumstances | Close-Approach Data ]
ABOUT SSD CREDITS/AWARDS PRIVACY/COPYRIGHT GLOSSARY LINKS
FirstGov 2020-Sep-19 00:25 UT
(server date/time)  
NASA Home Page
Site Manager:   Ryan S. Park
Webmaster  Alan B. Chamberlin